Linden, NJ

11:14 AM EDT on May 27, 2017 (GMT -0400)
Linden

Weather History for KLDJ - April, 2014

Change the Weather History Date:

Monday, April 21, 2014

  Actual Average (KEWR) Record (KEWR)
Temperature  
Mean Temperature 52 °F -  
Max Temperature 65 °F 64 °F 88 °F (1957)
Min Temperature 38 °F 46 °F 31 °F (1981)
Degree Days  
Heating Degree Days 14    
Growing Degree Days 2 (Base 50)    
Moisture  
Dew Point 33 °F    
Average Humidity 51    
Maximum Humidity 70    
Minimum Humidity 22    
Precipitation  
Precipitation 0.00 in - - ()
Sea Level Pressure  
Sea Level Pressure 30.13 in    
Wind  
Wind Speed 2 mph (SSE)    
Max Wind Speed 12 mph    
Max Gust Speed -    
Visibility 10 miles    
Events      
Averages and records for this station are not official NWS values.
T = Trace of Precipitation, MM = Missing Value Source: NWS Daily Summary

Daily Weather History Graph

Daily Weather History Graph

Search for Another Location

Airport or City:

Trip Planner

Search our weather history database for the weather conditions in past years. The results will help you decide how hot, cold, wet, or windy it might be!

Date:

Astronomy

Apr. 21, 2014 Rise Set
Actual Time 6:09 AM EDT 7:42 PM EDT
Civil Twilight 5:40 AM EDT 8:11 PM EDT
Nautical Twilight 5:06 AM EDT 8:46 PM EDT
Astronomical Twilight 4:29 AM EDT 9:23 PM EDT
Moon 1:10 AM EDT (4/21) 11:32 AM EDT (4/21)
Length of Visible Light 14h 30m
Length of Day
13h 33m
Waning Gibbous, 58% of the Moon is Illuminated
Apr 21
Waning Gibbous
Apr 22
Last Quarter
Apr 29
New
May 6
First Quarter
May 14
Full

Hourly Weather History & Observations

Time (EDT) Temp. Windchill Dew Point Humidity Pressure Visibility Wind Dir Wind Speed Gust Speed Precip Events Conditions
12:15 AM 44.6 °F - 30.2 °F 57% 30.35 in 10.0 mi Calm Calm - N/A   Clear
12:35 AM 43.7 °F - 30.2 °F 59% 30.34 in 10.0 mi Calm Calm - N/A   Clear
12:55 AM 43.2 °F 41.5 °F 30.9 °F 62% 30.34 in 10.0 mi WNW 3.5 mph - N/A   Clear
1:15 AM 42.3 °F - 31.1 °F 65% 30.33 in 10.0 mi Calm Calm - N/A   Clear
1:35 AM 41.4 °F - 31.1 °F 67% 30.32 in 10.0 mi Calm Calm - N/A   Clear
1:55 AM 41.2 °F 39.2 °F 30.7 °F 66% 30.31 in 10.0 mi NW 3.5 mph - N/A   Clear
2:15 AM 41.4 °F - 30.7 °F 66% 30.30 in 10.0 mi Calm Calm - N/A   Clear
2:35 AM 41.4 °F - 30.7 °F 66% 30.29 in 10.0 mi Calm Calm - N/A   Clear
2:55 AM 41.0 °F 39.0 °F 30.2 °F 65% 30.29 in 10.0 mi NW 3.5 mph - N/A   Clear
3:15 AM 40.5 °F - 29.3 °F 64% 30.28 in 10.0 mi Calm Calm - N/A   Clear
3:35 AM 41.2 °F - 29.3 °F 63% 30.28 in 10.0 mi Calm Calm - N/A   Clear
4:15 AM 40.8 °F - 29.1 °F 63% 30.27 in 10.0 mi Calm Calm - N/A   Clear
4:35 AM 40.5 °F - 29.3 °F 64% 30.27 in 10.0 mi Calm Calm - N/A   Clear
4:55 AM 40.1 °F - 29.1 °F 65% 30.26 in 10.0 mi Calm Calm - N/A   Clear
5:15 AM 40.1 °F - 29.3 °F 65% 30.26 in 10.0 mi Calm Calm - N/A   Clear
5:35 AM 39.2 °F - 29.5 °F 68% 30.26 in 10.0 mi Calm Calm - N/A   Clear
5:55 AM 38.8 °F - 29.3 °F 69% 30.26 in 10.0 mi Calm Calm - N/A   Clear
6:15 AM 39.2 °F - 29.3 °F 68% 30.26 in 10.0 mi Calm Calm - N/A   Clear
6:35 AM 38.7 °F 36.3 °F 29.3 °F 69% 30.26 in 10.0 mi NW 3.5 mph - N/A   Clear
6:55 AM 39.2 °F - 29.8 °F 69% 30.26 in 10.0 mi Calm Calm - N/A   Clear
7:15 AM 40.3 °F 38.2 °F 30.7 °F 69% 30.25 in 10.0 mi North 3.5 mph - N/A   Clear
7:35 AM 43.0 °F - 30.2 °F 61% 30.25 in 10.0 mi Calm Calm - N/A   Clear
7:55 AM 45.0 °F - 31.5 °F 59% 30.24 in 10.0 mi Calm Calm - N/A   Clear
8:15 AM 46.2 °F - 30.9 °F 55% 30.24 in 10.0 mi Calm Calm - N/A   Clear
8:35 AM 48.2 °F - 30.2 °F 50% 30.24 in 10.0 mi Calm Calm - N/A   Clear
8:55 AM 49.5 °F - 30.0 °F 47% 30.23 in 10.0 mi Calm Calm - N/A   Clear
9:15 AM 50.5 °F - 30.4 °F 46% 30.23 in 10.0 mi Calm Calm - N/A   Clear
9:35 AM 51.8 °F - 29.3 °F 42% 30.22 in 10.0 mi Calm Calm - N/A   Clear
9:55 AM 52.7 °F - 26.8 °F 37% 30.21 in 10.0 mi Calm Calm - N/A   Clear
10:15 AM 54.1 °F - 28.0 °F 37% 30.21 in 10.0 mi Calm Calm - N/A   Clear
10:35 AM 54.0 °F - 27.3 °F 36% 30.21 in 10.0 mi Calm Calm - N/A   Clear
10:55 AM 55.6 °F - 27.0 °F 33% 30.20 in 10.0 mi Calm Calm - N/A   Clear
11:15 AM 57.6 °F - 25.7 °F 29% 30.19 in 10.0 mi Calm Calm - N/A   Clear
11:35 AM 58.3 °F - 23.4 °F 26% 30.18 in 10.0 mi South 3.5 mph - N/A   Clear
11:55 AM 60.4 °F - 24.1 °F 25% 30.16 in 10.0 mi South 3.5 mph - N/A   Clear
12:15 PM 60.3 °F - 21.0 °F 22% 30.16 in 10.0 mi ESE 3.5 mph - N/A   Clear
12:35 PM 61.0 °F - 25.0 °F 25% 30.14 in 10.0 mi Calm Calm - N/A   Clear
12:55 PM 61.7 °F - 27.3 °F 27% 30.12 in 10.0 mi SSE 4.6 mph - N/A   Clear
1:15 PM 61.9 °F - 28.6 °F 28% 30.11 in 10.0 mi South 5.8 mph - N/A   Clear
1:35 PM 62.6 °F - 27.3 °F 26% 30.10 in 10.0 mi SSE 4.6 mph - N/A   Clear
1:55 PM 63.7 °F - 24.8 °F 23% 30.09 in 10.0 mi SE 5.8 mph - N/A   Clear
2:15 PM 64.9 °F - 26.2 °F 23% 30.08 in 10.0 mi SSE 5.8 mph - N/A   Clear
2:35 PM 65.3 °F - 31.1 °F 28% 30.07 in 10.0 mi SSE 10.4 mph - N/A   Clear
2:55 PM 63.7 °F - 32.9 °F 32% 30.06 in 10.0 mi SSE 10.4 mph - N/A   Clear
3:15 PM 64.4 °F - 34.7 °F 33% 30.04 in 10.0 mi SSE 10.4 mph - N/A   Clear
3:35 PM 63.3 °F - 35.4 °F 35% 30.03 in 10.0 mi SSE 10.4 mph - N/A   Clear
3:55 PM 63.5 °F - 35.6 °F 35% 30.02 in 10.0 mi SSE 11.5 mph - N/A   Clear
4:15 PM 62.6 °F - 36.5 °F 38% 30.01 in 10.0 mi SSE 10.4 mph - N/A   Clear
4:35 PM 62.6 °F - 35.6 °F 37% 30.00 in 10.0 mi SE 10.4 mph - N/A   Clear
4:55 PM 62.4 °F - 36.1 °F 38% 30.00 in 10.0 mi SSE 10.4 mph - N/A   Clear
5:15 PM 63.3 °F - 37.6 °F 39% 29.99 in 10.0 mi SSE 9.2 mph - N/A   Clear
5:35 PM 61.9 °F - 39.2 °F 43% 29.99 in 10.0 mi SSE 9.2 mph - N/A   Clear
5:55 PM 61.2 °F - 40.5 °F 47% 29.98 in 10.0 mi SSE 9.2 mph - N/A   Clear
6:15 PM 61.2 °F - 41.0 °F 47% 29.97 in 10.0 mi SSE 9.2 mph - N/A   Clear
6:35 PM 60.6 °F - 41.5 °F 49% 29.96 in 10.0 mi SSE 10.4 mph - N/A   Clear
7:15 PM 59.0 °F - 41.9 °F 53% 29.95 in 10.0 mi SSE 6.9 mph - N/A   Clear
7:35 PM 58.5 °F - 41.9 °F 54% 29.95 in 10.0 mi SE 5.8 mph - N/A   Clear
8:15 PM 56.5 °F - 42.8 °F 60% 29.94 in 10.0 mi SE 3.5 mph - N/A   Clear
8:35 PM 55.8 °F - 43.2 °F 63% 29.94 in 10.0 mi SE 3.5 mph - N/A   Clear
8:55 PM 55.2 °F - 43.7 °F 65% 29.94 in 10.0 mi ESE 3.5 mph - N/A   Clear
9:15 PM 54.5 °F - 43.7 °F 67% 29.94 in 10.0 mi SSE 3.5 mph - N/A   Clear
9:35 PM 54.5 °F - 43.9 °F 67% 29.94 in 10.0 mi SSE 3.5 mph - N/A   Clear
9:55 PM 53.8 °F - 44.1 °F 70% 29.94 in 10.0 mi South 3.5 mph - N/A   Clear
10:15 PM 54.5 °F - 43.7 °F 67% 29.93 in 10.0 mi South 4.6 mph - N/A   Clear
10:35 PM 54.5 °F - 43.3 °F 66% 29.92 in 10.0 mi South 3.5 mph - N/A   Clear
10:55 PM 54.0 °F - 43.7 °F 68% 29.92 in 10.0 mi South 3.5 mph - N/A   Clear
11:15 PM 53.6 °F - 43.7 °F 69% 29.91 in 10.0 mi Calm Calm - N/A   Clear
11:35 PM 53.6 °F - 43.7 °F 69% 29.91 in 10.0 mi South 3.5 mph - N/A   Clear
11:55 PM 53.1 °F - 43.5 °F 70% 29.91 in 10.0 mi Calm Calm - N/A   Clear